Orbital Elements at Epoch 2459000.5 (2020-May-31.0) TDB
Reference: JPL 14 (heliocentric ecliptic J2000)
Element | Value | Uncertainty (1-sigma) | Units |
e | .1372278592860024 | 7.8645e-08 | |
a | 3.137882749882149 | 5.1207e-08 | au |
q | 2.707277817425347 | 2.715e-07 | au |
i | 1.097830321685252 | 8.9226e-06 | deg |
node | 21.4218664442018 | 0.00033532 | deg |
peri | 254.1649032569849 | 0.00033689 | deg |
M | 304.1364404897255 | 3.4593e-05 | deg |
tp | 2459315.550082919726 (2021-Apr-11.05008292) | 0.00019932 | TDB |
period | 2030.268583766871 5.56 | 4.9698e-05 1.361e-07 | d yr |
n | .177316441222802 | 4.3404e-09 | deg/d |
Q | 3.56848768233895 | 5.8234e-08 | au |
|
| | Orbit Determination Parameters
Additional Information
|